This demonstration page uses our WeatherBlox Daily Observations layout. Learn more.

Left ArrowRight Arrow

Hourly Observations for May 19, 2017

Temp ( °F °C ) Dew Point ( °F °C ) Humidity (%) Winds ( mph kmh ) Pressure ( in mb ) Visibility ( mi km ) Precip ( " mm )
12:01 am 00:01 Cloudy with Light Rain 53 11.7 52 11.1 96 96 NE 7 11 29.97 1015 8 12.87472 0.01 0.254
12:03 am 00:03 Cloudy with Light Rain 53 11.7 52 11.1 96 96 NE 9 15 29.97 1015 8 12.87472 0.01 0.254
12:13 am 00:13 Cloudy with Light Rain 53 11.7 51 10.6 93 93 ENE 13 20 29.97 1015 7 11.26538 0.02 0.508
12:54 am 00:54 Cloudy with Light Rain 53 11.7 51 10.6 93 93 ENE 16 26 29.93 1014 10 16.0934 0.04 1.016
1:39 am 01:39 Cloudy 53 11.7 51 10.6 93 93 NE 13 20 29.91 1013 10 16.0934 0 0.0254
1:54 am 01:54 Cloudy 53 11.7 51 10.6 93 93 NE 15 24 29.91 1013 10 16.0934 0 0.0254
2:54 am 02:54 Cloudy 53 11.7 51 10.6 93 93 ENE 14 22 29.92 1013 10 16.0934 0 0
3:54 am 03:54 Cloudy 53 11.7 50 10 89 89 E 12 19 29.93 1013 10 16.0934 0 0
4:46 am 04:46 Cloudy with Rain 52 11.1 51 10.6 97 97 NE 10 17 29.91 1013 2.5 4.02335 0.03 0.762
4:54 am 04:54 Cloudy with Light Rain 52 11.1 51 10.6 97 97 NE 12 19 29.92 1013 4 6.43736 0.03 0.762
5:54 am 05:54 Cloudy with Light Rain 52 11.1 51 10.6 97 97 NNE 8 13 29.95 1014 5 8.0467 0.01 0.254
6:43 am 06:43 Cloudy with Light Rain 52 11.1 50 10 93 93 NNE 12 19 29.97 1015 2 3.21868 0.03 0.762
6:54 am 06:54 Cloudy with Light Rain 51 10.6 50 10 96 96 NNE 10 17 29.96 1015 2.5 4.02335 0.04 1.016
7:02 am 07:02 Cloudy with Light Rain 51 10.6 50 10 96 96 NNE 13 20 29.97 1015 3 4.82802 0 0.0254
7:20 am 07:20 Cloudy with Mist and Fog 51 10.6 50 10 96 96 NNE 13 20 29.97 1015 2.5 4.02335 0 0.0254
7:52 am 07:52 Cloudy with Light Rain 52 11 50 10 94 94 N 14 22 30 1016 1.5 2.41401 0 0.0254
7:54 am 07:54 Cloudy with Light Rain 51 10.6 50 10 96 96 N 14 22 30 1016 1.5 2.41401 0 0.0254
8:19 am 08:19 Cloudy with Light Rain 51 10.6 50 10 96 96 NNE 12 19 30 1016 1.75 2.816345 0.01 0.254
8:26 am 08:26 Cloudy with Light Rain 51 10.6 50 10 96 96 NNE 15 24 30 1016 2.5 4.02335 0.01 0.254
8:42 am 08:42 Cloudy with Mist and Fog 51 10.6 50 10 96 96 NNE 16 26 30 1016 2.5 4.02335 0.01 0.254
8:54 am 08:54 Cloudy with Mist and Fog 51 10.6 49 9.4 92 92 NNE 15 24 30.01 1016 2.5 4.02335 0.01 0.254
9:01 am 09:01 Cloudy with Mist and Fog 51 10.6 49 9.4 92 92 NNE 16 26 30 1016 3 4.82802 0 0
9:54 am 09:54 Cloudy with Mist and Fog 52 11.1 50 10 93 93 NNE 15 24 30.01 1016 3 4.82802 0 0
10:54 am 10:54 Cloudy 53 11.7 49 9.4 86 86 NNE 16 26 30.02 1017 10 16.0934 0 0
11:54 am 11:54 Cloudy 54 12.2 49 9.4 83 83 NNE 16 26 29.99 1016 10 16.0934 0 0
12:01 pm 12:01 Cloudy 54 12.2 49 9.4 83 83 NE 20 31 30 1016 10 16.0934 0 0
12:54 pm 12:54 Cloudy 55 12.8 50 10 83 83 NNE 17 28 29.98 1015 10 16.0934 0 0
1:54 pm 13:54 Cloudy 54 12.2 50 10 87 87 NE 16 26 29.99 1016 10 16.0934 0 0
2:54 pm 14:54 Cloudy 55 12.8 51 10.6 87 87 NE 17 28 29.98 1015 10 16.0934 0 0
3:49 pm 15:49 Cloudy with Light Rain 54 12 52 11 94 94 NE 13 20 29.97 1015 4 6.43736 0.01 0.254
3:54 pm 15:54 Cloudy with Nearby Thunderstorms 54 12.2 52 11.1 93 93 NE 14 22 29.97 1015 4 6.43736 0.01 0.254
4:05 pm 16:05 Cloudy with Nearby Thunderstorms 53 11.7 52 11.1 96 96 NE 10 17 29.97 1015 2 3.21868 0 0.0254
4:18 pm 16:18 Cloudy with Nearby Thunderstorms 53 11.7 52 11.1 96 96 ENE 8 13 30 1016 1 1.60934 0 0.0254
4:26 pm 16:26 Cloudy with Heavy Rain 53 11.7 52 11.1 96 96 NE 15 24 29.97 1015 0.75 1.207005 0.05 1.27
4:35 pm 16:35 Cloudy with Rain 53 11.7 52 11.1 96 96 NE 13 20 29.97 1015 1.25 2.011675 0.12 3.048
4:45 pm 16:45 Cloudy with Light Rain 53 11.7 52 11.1 96 96 NE 12 19 29.94 1014 2.5 4.02335 0.13 3.302
4:54 pm 16:54 Cloudy with Rain 53 11.7 52 11.1 96 96 NE 12 19 29.95 1014 2.5 4.02335 0.15 3.81
5:11 pm 17:11 Cloudy with Rain 53 11.7 52 11.1 96 96 NNE 14 22 29.97 1015 3 4.82802 0.05 1.27
5:54 pm 17:54 Cloudy with Light Rain 53 11.7 51 10.6 93 93 NNE 14 22 29.96 1014 5 8.0467 0.13 3.302
6:40 pm 18:40 Cloudy with Heavy Rain 51 10.6 49 9.4 92 92 NNE 18 30 29.94 1014 2.5 4.02335 0.13 3.302
6:47 pm 18:47 Cloudy with Rain 51 10.6 50 10 96 96 NNE 17 28 29.94 1014 4 6.43736 0.15 3.81
6:54 pm 18:54 Cloudy with Light Rain 51 10.6 49 9.4 92 92 NNE 21 33 29.93 1014 5 8.0467 0.16 4.064
7:54 pm 19:54 Cloudy with Light Rain 50 10 48 8.9 93 93 NNE 17 28 29.94 1014 6 9.65604 0.12 3.048
8:01 pm 20:01 Cloudy with Rain 50 10 49 9.4 96 96 NNE 14 22 29.94 1014 5 8.0467 0.02 0.508
8:25 pm 20:25 Cloudy with Rain 50 10 48 8.9 93 93 NNE 13 20 29.94 1014 5 8.0467 0.1 2.54
8:39 pm 20:39 Cloudy with Light Rain 50 10 48 8.9 93 93 NE 14 22 29.94 1014 7 11.26538 0.14 3.556
8:52 pm 20:52 Cloudy with Light Rain 50 10 48 9 94 94 NNE 14 22 29.94 1014 7 11.26538 0.15 3.81
8:54 pm 20:54 Cloudy with Rain 50 10 48 8.9 93 93 NNE 13 20 29.94 1014 6 9.65604 0.15 3.81
9:35 pm 21:35 Cloudy with Rain 49 9.4 48 8.9 97 97 ENE 21 33 29.91 1013 6 9.65604 0.08 2.032
9:54 pm 21:54 Cloudy with Rain 49 9.4 48 8.9 97 97 ENE 21 33 29.92 1013 6 9.65604 0.12 3.048
10:23 pm 22:23 Cloudy with Rain 49 9.4 48 8.9 97 97 ENE 17 28 29.97 1015 4 6.43736 0.05 1.27
10:54 pm 22:54 Cloudy with Rain 49 9.4 47 8.3 93 93 E 26 43 29.9 1013 4 6.43736 0.13 3.302
11:47 pm 23:47 Cloudy with Nearby Thunderstorms 49 9.4 47 8.3 93 93 ENE 18 30 29.91 1013 10 16.0934 0.04 1.016
11:54 pm 23:54 Cloudy with Nearby Thunderstorms 49 9.4 47 8.3 93 93 ENE 15 24 29.93 1013 10 16.0934 0.04 1.016

Powered by AerisWeather